Other Surface Observations
Issued by NWS Charleston, SC

Home | Current Version | Previous Version | Text Only | Print | Product List | Glossary On
Versions: 1 2 3 4 5 6 7 8 9 10 11 12 13 14 15 16 17 18 19 20 21 22 23 24 25 26 27 28 29 30 31 32 33 34 35 36 37 38 39 40 41 42 43 44 45 46 47 48 49 50
000
SXUS52 KCHS 232125
OSOCHS

MARINE OBSERVATIONS
NATIONAL WEATHER SERVICE CHARLESTON SC
500 PM EDT THU OCT 23 2014

...DOWNTOWN CHARLESTON AND HARBOR...

CITY           SKY/WX    TMP DP  RH WIND       PRES   REMARKS
WATERFRONT PRK   N/A     70 N/A N/A W6          N/A
FORT JOHNSON   NOT AVBL

...LAKE MOULTRIE...

CITY           SKY/WX    TMP DP  RH WIND       PRES   REMARKS
PINOPOLIS      NOT AVBL

...LAKE AND SUPPLEMENTAL COASTAL OBSERVATIONS...

STATION/POSITION TIME  TEMP    WIND        PRES    WAVE   SWELL
                       AIR SEA DIR/SP/G            HT/PER HT/PER/DIR
                 (UTC) (F)     (DEG/KT/KT) (MB)    (FT/S) (FT/S/D)
FORT PULASKI     2100   67      50/  5/  5 1016.0R
SAPELO ISLAND    NOT AVBL
UPR LAKE MARION  NOT AVBL
WINYAH BAY       2000   67     300/  6     1014.0S
LAKE MURRAY      2000   71      CALM  /  6 1014.9F
ACE BASIN NERRS  2000   70     300/  2     1016.0S


...C-MAN AND BUOY OBSERVATIONS...

STATION/POSITION TIME  TEMP    WIND        PRES    WAVE   SWELL
                       AIR SEA DIR/SP/G            HT/PER HT/PER/DIR
                 (UTC) (F)     (DEG/KT/KT) (MB)    (FT/S) (FT/S/D)
BUOY 41004       2100   65 78  280/ 10/ 14 1015.0F   2/ 5   2/ 5
BUOY 41008       2100   66 75   10/  4/  6 1016.2S   2/ 5   2/ 50/ 5
FOLLY BEACH CMAN 2100   68     290/  5/  7 1015.8F
CAPERS NS BUOY   NOT AVBL
FRIPP NS BUOY    NOT AVBL
5E ST. MARYS GA  2100      76                N/A     3/ 6
FRYING PAN BUOY  2100   65 74  280/ 16/ 19 1014.6F   3/ 4   2/ 90/13
BUOY 41025       2100   65     290/ 17/ 21 1011.1S   5/ 6   2/ 30/ 9
CAPE LOOKOUT NC  2100   66     290/ 13/ 15 1011.9S
BUOY 41002       1951   71 78  290/ 14/ 17 1013.7R   8/ 8   7/340/ 8
BUOY 41010       2100   74 81   20/ 10/ 14 1014.4F   3/ 7   3/ 7
BUOY 41012       NOT AVBL
ST AUGUSTINE FL  2100   69      40/  9/ 12 1016.0S


$$



USA.gov is the U.S. government's official web portal to all federal, state and local government web resources and services.